Change the Weather History Date:

Friday, February 28, 2014

  Actual Average Record
Temperature  
Mean Temperature -4 °F -  
Max Temperature 15 °F 31 °F 48 °F (1998)
Min Temperature -24 °F 17 °F -24 °F (2014)
Degree Days  
Heating Degree Days 70    
Moisture  
Dew Point -12 °F    
Average Humidity 60    
Maximum Humidity 86    
Minimum Humidity 43    
Precipitation  
Precipitation 0.00 in - - ()
Sea Level Pressure  
Sea Level Pressure 30.21 in    
Wind  
Wind Speed 5 mph (SSW)    
Max Wind Speed 14 mph    
Max Gust Speed 22 mph    
Visibility 9 miles    
Events Snow    
Averages and records for this station are not official NWS values.
T = Trace of Precipitation, MM = Missing Value Source: NWS Daily Summary

Daily Weather History Graph

Daily Weather History Graph

Search for Another Location

Airport or City:

Trip Planner

Search our weather history database for the weather conditions in past years. The results will help you decide how hot, cold, wet, or windy it might be!

Date:

Astronomy

Feb. 28, 2014 Rise Set
Actual Time 7:12 AM EST 6:20 PM EST
Civil Twilight 6:43 AM EST 6:49 PM EST
Nautical Twilight 6:09 AM EST 7:23 PM EST
Astronomical Twilight 5:36 AM EST 7:56 PM EST
Moon 6:27 AM EST (2/28) 5:56 PM EST (2/28)
Length of Visible Light 12h 06m
Length of Day
11h 07m
Waning Crescent, 1% of the Moon is Illuminated
Feb 28
Waning Crescent
Mar 1
New
Mar 8
First Quarter
Mar 16
Full
Mar 23
Last Quarter

Hourly Weather History & Observations

Time (EST) Temp. Windchill Dew Point Humidity Pressure Visibility Wind Dir Wind Speed Gust Speed Precip Events Conditions
12:15 AM -13.4 °F -25.5 °F -22.7 °F 63% 30.21 in 10.0 mi WSW 4.6 mph - N/A   Clear
12:34 AM -17.0 °F - -27.0 °F 60% 30.21 in 10.0 mi Calm Calm - N/A   Clear
12:54 AM -16.8 °F - -26.9 °F 60% 30.21 in 10.0 mi Calm Calm - N/A   Clear
1:14 AM -17.5 °F -30.3 °F -26.7 °F 63% 30.21 in - WSW 4.6 mph - N/A   Clear
1:34 AM -18.9 °F -34.0 °F -27.6 °F 65% 30.22 in - WSW 5.8 mph - N/A   Clear
1:54 AM -19.3 °F -34.5 °F -27.4 °F 66% 30.23 in - WSW 5.8 mph - N/A   Clear
2:14 AM -19.3 °F -36.2 °F -27.2 °F 67% 30.23 in - WSW 6.9 mph - N/A   Clear
2:34 AM -18.4 °F -35.1 °F -25.4 °F 70% 30.24 in - WSW 6.9 mph - N/A   Clear
2:54 AM -18.8 °F -31.8 °F -26.7 °F 67% 30.24 in - WSW 4.6 mph - N/A   Clear
3:14 AM -19.1 °F - -26.9 °F 68% 30.24 in - Calm Calm - N/A   Clear
3:34 AM -17.9 °F - -26.1 °F 66% 30.24 in - Calm Calm - N/A   Clear
3:54 AM -18.4 °F - -26.7 °F 66% 30.25 in - Calm Calm - N/A   Clear
4:14 AM -19.5 °F - -27.9 °F 65% 30.25 in - Calm Calm - N/A   Clear
4:34 AM -20.6 °F -33.9 °F -28.5 °F 67% 30.25 in - SW 4.6 mph - N/A   Clear
4:54 AM -20.4 °F -31.1 °F -28.1 °F 67% 30.26 in - WSW 3.5 mph - N/A   Clear
5:14 AM -21.1 °F - -29.0 °F 67% 30.26 in - Calm Calm - N/A   Clear
5:34 AM -23.4 °F - -31.9 °F 65% 30.26 in - Calm Calm - N/A   Clear
5:54 AM -23.1 °F - -31.5 °F 65% 30.27 in - Calm Calm - N/A   Clear
6:14 AM -22.9 °F -34.0 °F -32.1 °F 62% 30.27 in - WNW 3.5 mph - N/A   Clear
6:34 AM -23.1 °F - -31.5 °F 65% 30.28 in - Calm Calm - N/A   Clear
6:54 AM -24.0 °F - -33.0 °F 63% 30.28 in - Calm Calm - N/A   Clear
7:14 AM -23.4 °F - -31.9 °F 65% 30.28 in - Calm Calm - N/A   Clear
7:34 AM -22.9 °F - -31.9 °F 63% 30.28 in - Calm Calm - N/A   Clear
7:54 AM -22.5 °F - -31.4 °F 64% 30.28 in - Calm Calm - N/A   Clear
8:14 AM -19.5 °F - -28.7 °F 63% 30.29 in - Calm Calm - N/A   Clear
8:34 AM -17.0 °F - -26.1 °F 63% 30.30 in - Calm Calm - N/A   Clear
8:54 AM -14.6 °F - -24.5 °F 61% 30.30 in 10.0 mi Calm Calm - N/A   Clear
9:14 AM -12.5 °F -24.4 °F -22.5 °F 61% 30.31 in 10.0 mi WSW 4.6 mph - N/A   Clear
9:34 AM -7.2 °F -16.1 °F -17.7 °F 60% 30.31 in 10.0 mi WSW 3.5 mph - N/A   Clear
9:54 AM -1.7 °F -11.8 °F -15.3 °F 52% 30.31 in 10.0 mi WSW 4.6 mph - N/A   Clear
10:14 AM 4.5 °F -7.6 °F -9.0 °F 54% 30.31 in 10.0 mi SSW 6.9 mph - N/A   Clear
10:34 AM 5.5 °F -7.4 °F -9.2 °F 51% 30.31 in 10.0 mi SSW 8.1 mph - N/A   Clear
10:54 AM 6.8 °F -6.9 °F -8.9 °F 49% 30.31 in 10.0 mi South 9.2 mph - N/A   Clear
11:14 AM 7.3 °F -7.1 °F -8.0 °F 50% 30.30 in 10.0 mi SSW 10.4 mph - N/A   Clear
11:34 AM 8.4 °F -6.5 °F -9.4 °F 44% 30.31 in 10.0 mi SSW 11.5 mph 18.4 mph N/A   Clear
11:55 AM 8.8 °F -6.8 °F -8.7 °F 45% 30.31 in 10.0 mi South 12.7 mph 18.4 mph N/A   Clear
12:14 PM 9.1 °F -4.9 °F -7.4 °F 47% 30.29 in 10.0 mi South 10.4 mph 17.3 mph N/A   Clear
12:34 PM 9.7 °F -4.2 °F -7.2 °F 46% 30.29 in 10.0 mi South 10.4 mph 16.1 mph N/A   Clear
12:54 PM 9.7 °F -5.0 °F -8.0 °F 45% 30.27 in 10.0 mi South 11.5 mph 16.1 mph N/A   Clear
1:14 PM 10.0 °F -5.9 °F -8.5 °F 43% 30.26 in 10.0 mi South 13.8 mph 18.4 mph N/A   Clear
1:34 PM 11.1 °F -4.5 °F -7.2 °F 44% 30.25 in 10.0 mi South 13.8 mph 19.6 mph N/A   Clear
1:54 PM 10.4 °F -3.3 °F -7.4 °F 45% 30.25 in 10.0 mi South 10.4 mph 17.3 mph N/A   Clear
2:14 PM 11.3 °F -1.3 °F -6.9 °F 44% 30.23 in 10.0 mi South 9.2 mph 19.6 mph N/A   Clear
2:34 PM 11.3 °F -3.6 °F -7.1 °F 44% 30.22 in 10.0 mi South 12.7 mph 19.6 mph N/A   Clear
2:54 PM 11.3 °F -2.9 °F -6.7 °F 44% 30.22 in 10.0 mi South 11.5 mph 17.3 mph N/A   Clear
3:14 PM 11.5 °F -0.2 °F -5.3 °F 47% 30.22 in 10.0 mi South 8.1 mph - N/A   Scattered Clouds
3:34 PM 11.5 °F -1.9 °F -5.1 °F 47% 30.21 in 10.0 mi South 10.4 mph 18.4 mph N/A   Scattered Clouds
3:54 PM 11.8 °F -1.5 °F -6.0 °F 45% 30.20 in 10.0 mi South 10.4 mph 19.6 mph N/A   Scattered Clouds
4:14 PM 11.3 °F -1.3 °F -6.2 °F 46% 30.20 in 10.0 mi South 9.2 mph 17.3 mph N/A   Mostly Cloudy
4:34 PM 11.3 °F -2.9 °F -6.0 °F 46% 30.20 in 10.0 mi SSW 11.5 mph - N/A   Overcast
4:54 PM 11.3 °F 0.7 °F -5.6 °F 47% 30.19 in 10.0 mi South 6.9 mph - N/A   Mostly Cloudy
5:14 PM 12.0 °F -0.4 °F -5.4 °F 46% 30.17 in 10.0 mi South 9.2 mph - N/A   Overcast
5:34 PM 12.0 °F 1.5 °F -5.4 °F 46% 30.17 in 10.0 mi South 6.9 mph - N/A   Overcast
5:54 PM 12.0 °F 1.5 °F -4.9 °F 47% 30.16 in 10.0 mi South 6.9 mph - N/A   Overcast
6:14 PM 12.2 °F 2.9 °F -4.2 °F 48% 30.15 in 10.0 mi SSE 5.8 mph - N/A   Overcast
6:34 PM 12.2 °F -0.2 °F -4.0 °F 48% 30.14 in 10.0 mi SSE 9.2 mph - N/A   Overcast
6:54 PM 12.7 °F 1.4 °F -2.6 °F 51% 30.13 in 10.0 mi SSE 8.1 mph - N/A   Overcast
7:14 PM 12.9 °F 2.6 °F 1.0 °F 59% 30.12 in 10.0 mi SSE 6.9 mph - N/A   Overcast
7:34 PM 12.9 °F 2.6 °F 3.9 °F 67% 30.12 in 7.0 mi South 6.9 mph - N/A   Overcast
7:54 PM 13.1 °F 0.9 °F 5.7 °F 72% 30.12 in 4.0 mi South 9.2 mph - N/A Snow Light Snow
8:14 PM 13.1 °F 1.8 °F 8.1 °F 80% 30.10 in 2.5 mi South 8.1 mph - N/A Snow Light Snow
8:35 PM 13.5 °F 0.5 °F 8.8 °F 82% 30.08 in 3.0 mi South 10.4 mph - N/A Snow Light Snow
8:54 PM 14.0 °F -0.2 °F 9.1 °F 81% 30.06 in 10.0 mi SSE 12.7 mph 17.3 mph N/A   Overcast
9:14 PM 14.5 °F 2.7 °F 8.2 °F 76% 30.07 in 10.0 mi South 9.2 mph 16.1 mph N/A   Overcast
9:34 PM 14.9 °F 1.6 °F 7.2 °F 71% 30.06 in 7.0 mi South 11.5 mph 17.3 mph N/A Snow Light Snow
9:54 PM 15.3 °F 2.8 °F 7.0 °F 70% 30.06 in 7.0 mi South 10.4 mph 18.4 mph N/A   Overcast
10:14 PM 15.8 °F 1.4 °F 6.3 °F 66% 30.06 in 10.0 mi South 13.8 mph 21.9 mph N/A   Overcast
10:35 PM 15.8 °F 4.2 °F 8.2 °F 72% 30.08 in 3.0 mi SSW 9.2 mph - N/A Snow Light Snow
10:54 PM 15.4 °F 4.6 °F 9.5 °F 77% 30.08 in 2.5 mi SSW 8.1 mph 16.1 mph N/A Snow Light Snow
11:14 PM 14.9 °F 7.5 °F 11.1 °F 85% 30.08 in 1.0 mi SSW 4.6 mph - N/A Snow Snow
11:35 PM 14.7 °F 7.3 °F 11.3 °F 86% 30.08 in 1.2 mi SSW 4.6 mph - N/A Snow Light Snow
11:54 PM 14.9 °F 5.0 °F 11.3 °F 86% 30.07 in 2.5 mi SSW 6.9 mph - N/A Snow Light Snow